This demonstration page uses our WeatherBlox Daily Observations layout. Learn more.

Left ArrowRight Arrow

Hourly Observations for November 23, 2022

Temp ( °F °C ) Dew Point ( °F °C ) Humidity (%) Winds ( mph kmh ) Pressure ( in mb ) Visibility ( mi km ) Precip ( " mm )
12:53 am 00:53 Cloudy 44 6.7 43 6.1 96 96 ESE 10 17 30.07 1018 7 11 0.00 0.00
1:53 am 01:53 Cloudy 45 7.2 43 6.1 93 93 SSE 7 11 30.05 1018 7 11 0.00 0.00
2:53 am 02:53 Cloudy 45 7.2 43 6.1 93 93 ESE 6 9 30.03 1017 9 14 0.00 0.00
3:04 am 03:04 Cloudy 45 7.2 43 6.1 93 93 SE 9 15 30.11 1020 8 13 0.00 0.00
3:18 am 03:18 Cloudy 45 7.2 43 6.1 93 93 ESE 7 11 30.10 1019 8 13 0.00 0.00
3:53 am 03:53 Cloudy 45 7.2 43 6.1 93 93 SE 8 13 30.02 1017 8 13 0.00 0.00
4:53 am 04:53 Cloudy 46 7.8 44 6.7 93 93 SSE 6 9 30.02 1017 7 11 0.00 0.00
9:53 am 09:53 Cloudy with Mist and Fog 46 7.8 44 6.7 93 93 SSE 7 11 30.05 1018 5 8 0.00 0.00
10:53 am 10:53 Cloudy with Mist and Fog 47 8.3 45 7.2 93 93 Calm 30.04 1017 5 8 0.00 0.00
11:18 am 11:18 Cloudy 48 8.9 45 7.2 89 89 Calm 30.06 1018 7 11 0.00 0.00
11:53 am 11:53 Cloudy 50 10 45 7.2 83 83 undefined N/A 29.99 1016 10 16 0.00 0.00
12:11 pm 12:11 Mostly Cloudy 51 10.6 44 6.7 77 77 SSE 6 9 30.01 1016 10 16 0.00 0.00
12:19 pm 12:19 Mostly Sunny 52 11.1 45 7.2 77 77 VRB 5 7 29.99 1016 10 16 0.00 0.00
12:53 pm 12:53 Sunny 54 12.2 45 7.2 71 71 ESE 5 7 29.94 1014 10 16 0.00 0.00
1:53 pm 13:53 Sunny 59 15 44 6.7 58 58 SSE 7 11 29.88 1012 10 16 0.00 0.00
2:53 pm 14:53 Sunny 63 17.2 43 6.1 48 48 SSE 9 15 29.84 1011 10 16 0.00 0.00
3:53 pm 15:53 Sunny 65 18.3 43 6.1 45 45 SSE 9 15 29.82 1010 10 16 0.00 0.00
4:53 pm 16:53 Sunny 65 18.3 42 5.6 43 43 SE 8 13 29.80 1009 10 16 0.00 0.00
5:53 pm 17:53 Clear 59 15 42 5.6 53 53 SSE 9 15 29.81 1010 10 16 0.00 0.00
6:53 pm 18:53 Clear 53 11.7 42 5.6 66 66 SE 9 15 29.83 1010 10 16 0.00 0.00
7:53 pm 19:53 Clear 53 11.7 45 7.2 74 74 SE 9 15 29.85 1011 10 16 0.00 0.00
8:53 pm 20:53 Clear 50 10 45 7.2 83 83 SE 8 13 29.85 1011 10 16 0.00 0.00
9:53 pm 21:53 Clear 47 8.3 45 7.2 93 93 SE 6 9 29.85 1011 10 16 0.00 0.00

Powered by AerisWeather